Regional Weather Roundup
Issued by NWS Upton, NY

Current Version | Previous Version | Text Only | Print | Product List | Glossary On
Versions: 1 2 3 4 5 6 7 8 9 10 11 12 13 14 15 16 17 18 19 20 21 22 23 24 25 26 27 28 29 30 31 32 33 34 35 36 37 38 39 40 41 42 43 44 45 46 47 48
000 ASUS41 KOKX 061905 RWROKX REGIONAL WEATHER ROUNDUP NATIONAL WEATHER SERVICE NEW YORK NY 200 PM EST FRI MAR 06 2015 NOTE: "FAIR" INDICATES FEW OR NO CLOUDS BELOW 12,000 FEET WITH NO SIGNIFICANT WEATHER AND/OR OBSTRUCTIONS TO VISIBILITY. NYZ071-072-176-178-NJZ106-104-062000- NEW YORK CITY METRO AREA CITY SKY/WX TMP DP RH WIND PRES REMARKS CENTRAL PARK SUNNY 24 0 35 W8 30.49F WCI 15 LAGUARDIA APRT SUNNY 26 2 35 CALM 30.48F KENNEDY INTL SUNNY 23 2 40 S7 30.50F WCI 15 NEWARK/LIBERTY SUNNY 24 4 42 CALM 30.48F BRNX BOT. GARD N/A N/A N/A N/A W9 30.49F TETERBORO SUNNY 26 1 34 VRB3 30.47F $$ NYZ177-179-078>081-062000- LONG ISLAND NEW YORK CITY SKY/WX TMP DP RH WIND PRES REMARKS FARMINGDALE SUNNY 25 -1 32 CALM 30.47F ISLIP SUNNY 24 -4 29 N3 30.45F SHIRLEY SUNNY 24 -2 32 VRB5 30.48F WCI 18 WESTHAMPTON SUNNY 23 1 38 NW5 30.49F WCI 17 MONTAUK POINT N/A 23 6 48 NW5 30.48F WCI 17 $$ NYZ052-065-067-062000- HUDSON VALLEY CITY SKY/WX TMP DP RH WIND PRES REMARKS WHITE PLAINS SUNNY 23 0 36 CALM 30.42F NEWBURGH SUNNY 25 3 39 CALM 30.44F MONTGOMERY SUNNY 23 1 38 S6 30.42F WCI 16 POUGHKEEPSIE SUNNY 25 -1 32 VRB3 30.45F ALBANY SUNNY 23 -2 33 NW6 30.43F WCI 16 $$ NJZ001-105-106-008-010-013-015-019>022-104-062000- NEW JERSEY CITY SKY/WX TMP DP RH WIND PRES REMARKS NEWARK/LIBERTY SUNNY 24 4 42 CALM 30.48F TETERBORO SUNNY 26 1 34 VRB3 30.47F CALDWELL SUNNY 24 2 38 CALM 30.47F MORRISTOWN SUNNY 25 5 42 SE5 30.48F WCI 19 SOMERVILLE SUNNY 26 4 38 VRB3 30.46F SUSSEX MIX PCPN 23 -2 33 VRB3 30.43F ANDOVER N/A 22 0 38 SW8 30.43F WCI 12 TRENTON SUNNY 23 6 48 VRB7 30.47F WCI 15 MILLVILLE SUNNY 23 32 100 W8 30.50F WCI 14 ATLANTIC CITY FLURRIES 25 12 58 CALM 30.49F WRIGHTSTOWN SUNNY 24 7 50 W1 30.46F TOMS RIVER PTSUNNY 23 16 74 N5 30.49F WCI 17 BELMAR SUNNY 23 3 42 NW3 30.47F $$ PAZ047>061-062-071-062000- EASTERN PENNSYLVANIA CITY SKY/WX TMP DP RH WIND PRES REMARKS PHILADELPHIA SUNNY 24 8 50 CALM 30.51F ALLENTOWN SUNNY 21 5 50 SW7 30.47F WCI 12 SCRANTON SUNNY 22 0 38 CALM 30.41F $$ CTZ002-004>006-009-010-012-RIZ004-006-007-MAZ004-011-015-062000- SOUTHERN NEW ENGLAND IN CT CITY SKY/WX TMP DP RH WIND PRES REMARKS BRADLEY INTL SUNNY 25 -1 32 SE8 30.42F WCI 16 HARTFORD SUNNY 24 -2 32 VRB5 30.46F WCI 18 DANBURY SUNNY 23 -5 29 CALM 30.43F WTRBRY/OXFORD SUNNY 25 0 33 VRB6 30.41F WCI 18 BRIDGEPORT SUNNY 21 8 57 SW10 30.47F WCI 10 MERIDEN SUNNY 27 -2 28 N5 30.45F WCI 22 NEW HAVEN SUNNY 22 5 48 SW8 30.46F WCI 12 CHESTER FAIR 27 0 31 NW5 30.44F WCI 21 GROTON SUNNY 21 2 43 S7 30.46F WCI 12 WILLIMANTIC SUNNY 25 -5 26 VRB3 30.44F IN RI CITY SKY/WX TMP DP RH WIND PRES REMARKS PROVIDENCE MOSUNNY 23 -4 30 SE3 30.46F BLOCK ISLAND SUNNY 21 3 45 CALM 30.45S WESTERLY SUNNY 23 6 48 SW7 30.46F WCI 15 IN MA CITY SKY/WX TMP DP RH WIND PRES REMARKS BOSTON MOSUNNY 21 -1 38 SE8 30.44F WCI 11 WORCESTER SUNNY 22 -8 26 W8 30.35F WCI 12 WESTFIELD SUNNY 26 0 32 S8 30.40F WCI 18 PROVINCETOWN SUNNY 23 9 54 W5 30.45F WCI 17 NANTUCKET MOSUNNY 26 13 57 N9 30.44F WCI 17 $$ ANZ330-335-338-340-345-350-353-355-062000- COASTAL MARINE OBSERVATIONS STATION/POSITION TIME SKY/WX TEMP WIND PRES VSBY WAVE AIR SEA DIR/SP/G HT/PER (UTC) (F) (DEG/KT/KT) (MB) (MI) (FT/S) NY HARB ENTRANCE 1800 20 38 320/ 6/ 8 1033.8 2/11 4S FIRE IS NOT AVBL 20S FIRE ISLAND 1800 36 1033.9 3/ 6 23SW MTP 1900 N/A 2/ 5 HUDSON CANYON NOT AVBL EXECUTION ROCKS NOT AVBL WESTERN LI SOUND NOT AVBL CENTRAL LI SOUND NOT AVBL EASTERN LI SOUND NOT AVBL ROBBINS REEF 1800 22 270/ 3/ 5 1031.3 $$ >>>>>>>>>>>>>>>>>>>>>>>>>>>> KEY <<<<<<<<<<<<<<<<<<<<<<<<<<< > < > SKY/WX - SKY CONDITION/PRESENT WEATHER < > TMP - TEMPERATURE IN FAHRENHEIT < > DP - DEWPOINT IN FAHRENHEIT < > RH - RELATIVE HUMIDITY IN PERCENT < > WIND - DIRECTION AND SPEED IN MPH < > PRES - MEAN SEA LEVEL PRESSURE IN INCHES OF HG < > WCI - WIND CHILL INDEX < > VSB - VISIBILITY IN MILES < > HX - HEAT INDEX < > TC - TEMPERATURE IN CELSIUS < > VRB - VARIABLE WIND DIRECTION < > < >>>>>>>>>>>>>>>>>>>>>>>>>>>> KEY <<<<<<<<<<<<<<<<<<<<<<<<<<<

USA.gov is the U.S. government's official web portal to all federal, state and local government web resources and services.